[[{"header":{"parameterUnit":"m.s-1","parameterCategory":1,"la1":30.2992,"la2":30.254,"lo1":-89.0895,"lo2":-89.0443,"dy":0.0025,"dx":0.0025,"nx":19,"ny":19,"refTime":"2026-04-15T21:00:00:Z","depth":0,"parameterNumber":2,"parameterNumberName":"U-component_of_WINDS"},"data":[0,0,0,0.313,0.3128,0.2999,0.2998,0.2853,0.2851,0,0,0,0,0,0,0,0,0,0,0,0.3182,0.3182,0.313,0.3127,0.2999,0.2998,0.2853,0.2851,0,0,0,0,0,0,0,0,0,0,0,0.3182,0.3182,0.3181,0.3127,0.2999,0.2998,0.2853,0.2943,0,0,0,0,0,0,0,0,0,0,0.3064,0.3126,0.3182,0.3181,0.3126,0.2999,0.2998,0.2947,0.2937,0.292,0,0.2911,0,0.2879,0.2843,0.2843,0,0,0,0.3116,0.3135,0.3088,0.3181,0.3125,0.2999,0.3054,0.2941,0.293,0.2907,0.2908,0.2902,0.2877,0.2842,0.2842,0.2788,0.2788,0,0,0.3123,0.3166,0.3095,0.3082,0.3106,0.3058,0.305,0.2934,0.2937,0.2908,0.2898,0.2874,0.2842,0.2841,0.2787,0.2788,0,0,0,0.3151,0.3171,0.3126,0.3088,0.3064,0.3054,0.3045,0.2942,0.2924,0.2897,0.2873,0.2841,0.2839,0.2787,0.2787,0.2844,0,0,0,0.3155,0.3187,0.313,0.3155,0.3066,0.3002,0.3056,0.2932,0.2918,0.2873,0.2841,0.2838,0.2786,0.2787,0.2841,0.2862,0,0,0,0.3186,0.3191,0.3177,0.3157,0.3104,0.3003,0.2978,0.2928,0.2904,0.2843,0.2838,0.2786,0.2787,0.2839,0.2859,0.2861,0,0,0,0.323,0.3227,0.3179,0.3166,0.3106,0.304,0.2978,0.2926,0.288,0.284,0.2787,0.2787,0.2839,0.2856,0.2859,0.287,0.2879,0,0,0.3249,0.3231,0.322,0.3174,0.3128,0.3056,0.3017,0.2933,0.2887,0.2823,0.2821,0.2842,0.2858,0.286,0.2916,0.2923,0,0,0,0.3241,0.3234,0.3212,0.3173,0.3112,0.306,0.2979,0.2948,0.2892,0.2864,0.2842,0.2851,0.285,0.2853,0.286,0.2856,0.2791,0.2791,0.2791,0.3328,0.3272,0.3251,0.3181,0.3143,0.3061,0.3025,0.2969,0.2921,0.2917,0.2897,0.2938,0.2944,0.2948,0.2945,0.2899,0.2899,0.29,0.29,0.3351,0.3332,0.3273,0.3231,0.3172,0.3135,0.3056,0.3024,0.298,0.2948,0.2944,0.2914,0.2958,0.2952,0.2903,0.2903,0.2902,0.2902,0.2902,0.3401,0.3382,0.3348,0.3287,0.3246,0.3174,0.3136,0.3082,0.3031,0.3028,0.3001,0.3,0.2992,0.302,0.302,0.302,0.302,0.302,0.302,0.3466,0.3426,0.3401,0.3339,0.3308,0.326,0.3179,0.3146,0.3095,0.3059,0.3058,0.3011,0.2974,0.2965,0.3022,0.3022,0.3021,0.3021,0.3021,0.3508,0.3491,0.3454,0.3424,0.3346,0.331,0.3244,0.3181,0.3146,0.3129,0.3083,0.3064,0.304,0.3034,0.3027,0.3096,0.3096,0.3096,0.3096,0.355,0.3534,0.3485,0.344,0.3389,0.3327,0.3285,0.3223,0.3155,0.313,0.3112,0.3098,0.3095,0.3072,0.3066,0.3058,0.3133,0.3133,0.3133,0.3573,0.355,0.3526,0.3463,0.34,0.3346,0.3305,0.3253,0.3173,0.3134,0.3109,0.3107,0.3083,0.3079,0.3037,0.3029,0.3013,0,0]},{"header":{"parameterUnit":"m.s-1","parameterCategory":1,"la1":30.2992,"la2":30.254,"lo1":-89.0895,"lo2":-89.0443,"dy":0.0025,"dx":0.0025,"nx":19,"ny":19,"refTime":"2026-04-15T21:00:00:Z","depth":0,"parameterNumber":3,"parameterNumberName":"V-component_of_WINDS"},"data":[0,0,0,1.6857,1.6854,1.6688,1.6687,1.6497,1.6496,0,0,0,0,0,0,0,0,0,0,0,1.6923,1.6922,1.6857,1.6853,1.6688,1.6687,1.6497,1.6496,0,0,0,0,0,0,0,0,0,0,0,1.6923,1.6923,1.6922,1.6853,1.6688,1.6687,1.6498,1.6614,0,0,0,0,0,0,0,0,0,0,1.6771,1.6849,1.6923,1.6922,1.6852,1.6688,1.6687,1.6619,1.6607,1.6583,0,1.657,0,1.653,1.6485,1.6484,0,0,0,1.6839,1.686,1.68,1.6922,1.6851,1.6688,1.6758,1.6612,1.6598,1.6567,1.6567,1.6559,1.6527,1.6484,1.6483,1.6404,1.6404,0,0,1.6848,1.6901,1.681,1.6792,1.6824,1.6764,1.6754,1.6603,1.6605,1.6566,1.6554,1.6524,1.6482,1.6481,1.6404,1.6404,0,0,0,1.6884,1.6908,1.6852,1.6801,1.677,1.6759,1.6747,1.6611,1.6589,1.6552,1.6522,1.6482,1.648,1.6403,1.6404,1.6472,0,0,0,1.6889,1.6929,1.6856,1.6887,1.6773,1.6689,1.676,1.66,1.6581,1.6523,1.6482,1.6478,1.6403,1.6404,1.6469,1.6494,0,0,0,1.6928,1.6933,1.6916,1.689,1.6821,1.669,1.6659,1.6594,1.6563,1.6484,1.6478,1.6403,1.6404,1.6467,1.649,1.6489,0,0,0,1.6983,1.6975,1.6918,1.6897,1.6823,1.6736,1.6659,1.659,1.653,1.6481,1.6403,1.6404,1.6466,1.6487,1.6487,1.6499,1.6509,0,0,1.7002,1.6979,1.6963,1.6907,1.6844,1.6757,1.6701,1.6594,1.6535,1.645,1.6448,1.647,1.6489,1.6489,1.6548,1.6557,0,0,0,1.6987,1.6976,1.6948,1.6896,1.6818,1.6752,1.6648,1.6609,1.6535,1.6504,1.6468,1.6478,1.6476,1.6478,1.6486,1.648,1.6408,1.6408,1.6408,1.7087,1.7018,1.6987,1.6898,1.6849,1.6745,1.6697,1.6626,1.6566,1.6559,1.6533,1.6578,1.6583,1.6588,1.6583,1.6534,1.6534,1.6534,1.6534,1.7108,1.7082,1.7009,1.6952,1.6878,1.6828,1.6727,1.6688,1.6629,1.6591,1.6585,1.6549,1.66,1.6592,1.6539,1.6538,1.6537,1.6537,1.6537,1.7165,1.7141,1.7097,1.7017,1.6963,1.6872,1.6821,1.6754,1.6689,1.6684,1.6649,1.6648,1.6638,1.6673,1.6673,1.6673,1.6673,1.6673,1.6673,1.7242,1.719,1.7157,1.7077,1.7036,1.6974,1.6872,1.6828,1.6763,1.6718,1.6717,1.6659,1.6619,1.661,1.6675,1.6675,1.6675,1.6675,1.6675,1.7286,1.7267,1.7216,1.7177,1.7077,1.7028,1.6946,1.6864,1.6818,1.6795,1.6739,1.6721,1.6691,1.6685,1.6677,1.6755,1.6755,1.6755,1.6755,1.7334,1.7315,1.7249,1.719,1.7124,1.7046,1.6988,1.691,1.6823,1.6791,1.677,1.6754,1.6751,1.6722,1.6715,1.6707,1.6791,1.6791,1.6791,1.7358,1.7329,1.7295,1.7216,1.7134,1.7065,1.7009,1.6941,1.6839,1.6791,1.6763,1.6762,1.6736,1.6731,1.668,1.667,1.6653,0,0]}]]